Year,Month,Day,Hour,Minute,Value (Times are PST for temperature in C)
2015,04,26,06,46,7.70
2015,04,26,06,47,7.70
2015,04,26,06,48,7.70
2015,04,26,06,49,7.70
2015,04,26,06,50,7.70
2015,04,26,06,51,7.70
2015,04,26,06,52,7.70
2015,04,26,06,53,7.70
2015,04,26,06,54,7.70
2015,04,26,06,55,7.70
2015,04,26,06,56,7.70
2015,04,26,06,57,7.70
2015,04,26,06,58,7.70
2015,04,26,06,59,7.70
2015,04,26,07,00,7.70
2015,04,26,07,01,7.70
2015,04,26,07,02,7.70
2015,04,26,07,03,7.70
2015,04,26,07,04,7.70
2015,04,26,07,05,7.70
2015,04,26,07,06,7.70
2015,04,26,07,07,7.70
2015,04,26,07,08,7.70
2015,04,26,07,09,7.70
2015,04,26,07,10,7.70
2015,04,26,07,11,7.70
2015,04,26,07,12,7.70
2015,04,26,07,13,7.70
2015,04,26,07,14,7.70
2015,04,26,07,15,7.70
2015,04,26,07,16,7.90
2015,04,26,07,17,7.90
2015,04,26,07,18,7.90
2015,04,26,07,19,7.90
2015,04,26,07,20,7.90
2015,04,26,07,21,7.90
2015,04,26,07,22,7.90
2015,04,26,07,23,7.90
2015,04,26,07,24,7.90
2015,04,26,07,25,7.90
2015,04,26,07,26,7.90
2015,04,26,07,27,7.90
2015,04,26,07,28,7.90
2015,04,26,07,29,7.90
2015,04,26,07,30,7.90
2015,04,26,07,31,7.90
2015,04,26,07,32,7.90
2015,04,26,07,33,7.90
2015,04,26,07,34,7.90
2015,04,26,07,35,7.90
2015,04,26,07,36,7.90
2015,04,26,07,37,7.90
2015,04,26,07,38,7.90
2015,04,26,07,39,7.90
2015,04,26,07,40,7.90
2015,04,26,07,41,7.90
2015,04,26,07,42,7.90
2015,04,26,07,43,7.90
2015,04,26,07,44,7.90
2015,04,26,07,45,7.90
2015,04,26,07,46,8.40
2015,04,26,07,47,8.40
2015,04,26,07,48,8.40
2015,04,26,07,49,8.40
2015,04,26,07,50,8.40
2015,04,26,07,51,8.40
2015,04,26,07,52,8.40
2015,04,26,07,53,8.40
2015,04,26,07,54,8.40
2015,04,26,07,55,8.40
2015,04,26,07,56,8.40
2015,04,26,07,57,8.40
2015,04,26,07,58,8.40
2015,04,26,07,59,8.40
2015,04,26,08,00,8.40
2015,04,26,08,01,8.40
2015,04,26,08,02,8.40
2015,04,26,08,03,8.40
2015,04,26,08,04,8.40
2015,04,26,08,05,8.40
2015,04,26,08,06,8.40
2015,04,26,08,07,8.40
2015,04,26,08,08,8.40
2015,04,26,08,09,8.40
2015,04,26,08,10,8.40
2015,04,26,08,11,8.40
2015,04,26,08,12,8.40
2015,04,26,08,13,8.40
2015,04,26,08,14,8.40
2015,04,26,08,15,8.40
2015,04,26,08,16,8.20
2015,04,26,08,17,8.20
2015,04,26,08,18,8.20
2015,04,26,08,19,8.20
2015,04,26,08,20,8.20
2015,04,26,08,21,8.20
2015,04,26,08,22,8.20
2015,04,26,08,23,8.20
2015,04,26,08,24,8.20
2015,04,26,08,25,8.20
2015,04,26,08,26,8.20
2015,04,26,08,27,8.20
2015,04,26,08,28,8.20
2015,04,26,08,29,8.20
2015,04,26,08,30,8.20
2015,04,26,08,31,8.20
2015,04,26,08,32,8.20
2015,04,26,08,33,8.20
2015,04,26,08,34,8.20
2015,04,26,08,35,8.20
2015,04,26,08,36,8.20
2015,04,26,08,37,8.20
2015,04,26,08,38,8.20
2015,04,26,08,39,8.20
2015,04,26,08,40,8.20
2015,04,26,08,41,8.20
2015,04,26,08,42,8.20
2015,04,26,08,43,8.20
2015,04,26,08,44,8.20
2015,04,26,08,45,8.20
2015,04,26,08,46,8.10
2015,04,26,08,47,8.10
2015,04,26,08,48,8.10
2015,04,26,08,49,8.10
2015,04,26,08,50,8.10
2015,04,26,08,51,8.10
2015,04,26,08,52,8.10
2015,04,26,08,53,8.10
2015,04,26,08,54,8.10
2015,04,26,08,55,8.10
2015,04,26,08,56,8.10
2015,04,26,08,57,8.10
2015,04,26,08,58,8.10
2015,04,26,08,59,8.10
2015,04,26,09,00,8.10
2015,04,26,09,01,8.10
2015,04,26,09,02,8.10
2015,04,26,09,03,8.10
2015,04,26,09,04,8.10
2015,04,26,09,05,8.10
2015,04,26,09,06,8.10
2015,04,26,09,07,8.10
2015,04,26,09,08,8.10
2015,04,26,09,09,8.10
2015,04,26,09,10,8.10
2015,04,26,09,11,8.10
2015,04,26,09,12,8.10
2015,04,26,09,13,8.10
2015,04,26,09,14,8.10
2015,04,26,09,15,8.10
2015,04,26,09,16,8.30
2015,04,26,09,17,8.30
2015,04,26,09,18,8.30
2015,04,26,09,19,8.30
2015,04,26,09,20,8.30
2015,04,26,09,21,8.30
2015,04,26,09,22,8.30
2015,04,26,09,23,8.30
2015,04,26,09,24,8.30
2015,04,26,09,25,8.30
2015,04,26,09,26,8.30
2015,04,26,09,27,8.30
2015,04,26,09,28,8.30
2015,04,26,09,29,8.30
2015,04,26,09,30,8.30
2015,04,26,09,31,8.30
2015,04,26,09,32,8.30
2015,04,26,09,33,8.30
2015,04,26,09,34,8.30
2015,04,26,09,35,8.30
2015,04,26,09,36,8.30
2015,04,26,09,37,8.30
2015,04,26,09,38,8.30
2015,04,26,09,39,8.30
2015,04,26,09,40,8.30
2015,04,26,09,41,8.30
2015,04,26,09,42,8.30
2015,04,26,09,43,8.30
2015,04,26,09,44,8.30
2015,04,26,09,45,8.30
2015,04,26,09,46,8.30
2015,04,26,09,47,8.30
2015,04,26,09,48,8.30
2015,04,26,09,49,8.30
2015,04,26,09,50,8.30
2015,04,26,09,51,8.30
2015,04,26,09,52,8.30
2015,04,26,09,53,8.30
2015,04,26,09,54,8.30
2015,04,26,09,55,8.30
2015,04,26,09,56,8.30
2015,04,26,09,57,8.30
2015,04,26,09,58,8.30
2015,04,26,09,59,8.30
2015,04,26,10,00,8.30
2015,04,26,10,01,8.30
2015,04,26,10,02,8.30
2015,04,26,10,03,8.30
2015,04,26,10,04,8.30
2015,04,26,10,05,8.30
2015,04,26,10,06,8.30
2015,04,26,10,07,8.30
2015,04,26,10,08,8.30
2015,04,26,10,09,8.30
2015,04,26,10,10,8.30
2015,04,26,10,11,8.30
2015,04,26,10,12,8.30
2015,04,26,10,13,8.30
2015,04,26,10,14,8.30
2015,04,26,10,15,8.30
2015,04,26,10,16,8.40
2015,04,26,10,17,8.40
2015,04,26,10,18,8.40
2015,04,26,10,19,8.40
2015,04,26,10,20,8.40
2015,04,26,10,21,8.40
2015,04,26,10,22,8.40
2015,04,26,10,23,8.40
2015,04,26,10,24,8.40
2015,04,26,10,25,8.40
2015,04,26,10,26,8.40
2015,04,26,10,27,8.40
2015,04,26,10,28,8.40
2015,04,26,10,29,8.40
2015,04,26,10,30,8.40
2015,04,26,10,31,8.40
2015,04,26,10,32,8.40
2015,04,26,10,33,8.40
2015,04,26,10,34,8.40
2015,04,26,10,35,8.40
2015,04,26,10,36,8.40
2015,04,26,10,37,8.40
2015,04,26,10,38,8.40
2015,04,26,10,39,8.40
2015,04,26,10,40,8.40
2015,04,26,10,41,8.40
2015,04,26,10,42,8.40
2015,04,26,10,43,8.40
2015,04,26,10,44,8.40
2015,04,26,10,45,8.40
2015,04,26,10,46,9.30
2015,04,26,10,47,9.30
2015,04,26,10,48,9.30
2015,04,26,10,49,9.30
2015,04,26,10,50,9.30
2015,04,26,10,51,9.30
2015,04,26,10,52,9.30
2015,04,26,10,53,9.30
2015,04,26,10,54,9.30
2015,04,26,10,55,9.30
2015,04,26,10,56,9.30
2015,04,26,10,57,9.30
2015,04,26,10,58,9.30
2015,04,26,10,59,9.30
2015,04,26,11,00,9.30
2015,04,26,11,01,9.30
2015,04,26,11,02,9.30
2015,04,26,11,03,9.30
2015,04,26,11,04,9.30
2015,04,26,11,05,9.30
2015,04,26,11,06,9.30
2015,04,26,11,07,9.30
2015,04,26,11,08,9.30
2015,04,26,11,09,9.30
2015,04,26,11,10,9.30
2015,04,26,11,11,9.30
2015,04,26,11,12,9.30
2015,04,26,11,13,9.30
2015,04,26,11,14,9.30
2015,04,26,11,15,9.30
2015,04,26,11,16,9.60
2015,04,26,11,17,9.60
2015,04,26,11,18,9.60
2015,04,26,11,19,9.60
2015,04,26,11,20,9.60
2015,04,26,11,21,9.60
2015,04,26,11,22,9.60
2015,04,26,11,23,9.60
2015,04,26,11,24,9.60
2015,04,26,11,25,9.60
2015,04,26,11,26,9.60
2015,04,26,11,27,9.60
2015,04,26,11,28,9.60
2015,04,26,11,29,9.60
2015,04,26,11,30,9.60
2015,04,26,11,31,9.60
2015,04,26,11,32,9.60
2015,04,26,11,33,9.60
2015,04,26,11,34,9.60
2015,04,26,11,35,9.60
2015,04,26,11,36,9.60
2015,04,26,11,37,9.60
2015,04,26,11,38,9.60
2015,04,26,11,39,9.60
2015,04,26,11,40,9.60
2015,04,26,11,41,9.60
2015,04,26,11,42,9.60
2015,04,26,11,43,9.60
2015,04,26,11,44,9.60
2015,04,26,11,45,9.60
2015,04,26,11,46,9.80
2015,04,26,11,47,9.80
2015,04,26,11,48,9.80
2015,04,26,11,49,9.80
2015,04,26,11,50,9.80
2015,04,26,11,51,9.80
2015,04,26,11,52,9.80
2015,04,26,11,53,9.80
2015,04,26,11,54,9.80
2015,04,26,11,55,9.80
2015,04,26,11,56,9.80
2015,04,26,11,57,9.80
2015,04,26,11,58,9.80
2015,04,26,11,59,9.80
2015,04,26,12,00,9.80
2015,04,26,12,01,9.80
2015,04,26,12,02,9.80
2015,04,26,12,03,9.80
2015,04,26,12,04,9.80
2015,04,26,12,05,9.80
2015,04,26,12,06,9.80
2015,04,26,12,07,9.80
2015,04,26,12,08,9.80
2015,04,26,12,09,9.80
2015,04,26,12,10,9.80
2015,04,26,12,11,9.80
2015,04,26,12,12,9.80
2015,04,26,12,13,9.80
2015,04,26,12,14,9.80
2015,04,26,12,15,9.80
2015,04,26,12,16,9.90
2015,04,26,12,17,9.90
2015,04,26,12,18,9.90
2015,04,26,12,19,9.90
2015,04,26,12,20,9.90
2015,04,26,12,21,9.90
2015,04,26,12,22,9.90
2015,04,26,12,23,9.90
2015,04,26,12,24,9.90
2015,04,26,12,25,9.90
2015,04,26,12,26,9.90
2015,04,26,12,27,9.90
2015,04,26,12,28,9.90
2015,04,26,12,29,9.90
2015,04,26,12,30,9.90
2015,04,26,12,31,9.90
2015,04,26,12,32,9.90
2015,04,26,12,33,9.90
2015,04,26,12,34,9.90
2015,04,26,12,35,9.90
2015,04,26,12,36,9.90
2015,04,26,12,37,9.90
2015,04,26,12,38,9.90
2015,04,26,12,39,9.90
2015,04,26,12,40,9.90
2015,04,26,12,41,9.90
2015,04,26,12,42,9.90
2015,04,26,12,43,9.90
2015,04,26,12,44,9.90
2015,04,26,12,45,9.90
2015,04,26,12,46,10.10
2015,04,26,12,47,10.10
2015,04,26,12,48,10.10
2015,04,26,12,49,10.10
2015,04,26,12,50,10.10
2015,04,26,12,51,10.10
2015,04,26,12,52,10.10
2015,04,26,12,53,10.10
2015,04,26,12,54,10.10
2015,04,26,12,55,10.10
2015,04,26,12,56,10.10
2015,04,26,12,57,10.10
2015,04,26,12,58,10.10
2015,04,26,12,59,10.10
2015,04,26,13,00,10.10
2015,04,26,13,01,10.10
2015,04,26,13,02,10.10
2015,04,26,13,03,10.10
2015,04,26,13,04,10.10
2015,04,26,13,05,10.10
2015,04,26,13,06,10.10
2015,04,26,13,07,10.10
2015,04,26,13,08,10.10
2015,04,26,13,09,10.10
2015,04,26,13,10,10.10
2015,04,26,13,11,10.10
2015,04,26,13,12,10.10
2015,04,26,13,13,10.10
2015,04,26,13,14,10.10
2015,04,26,13,15,10.10
2015,04,26,13,16,10.40
2015,04,26,13,17,10.40
2015,04,26,13,18,10.40
2015,04,26,13,19,10.40
2015,04,26,13,20,10.40
2015,04,26,13,21,10.40
2015,04,26,13,22,10.40
2015,04,26,13,23,10.40
2015,04,26,13,24,10.40
2015,04,26,13,25,10.40
2015,04,26,13,26,10.40
2015,04,26,13,27,10.40
2015,04,26,13,28,10.40
2015,04,26,13,29,10.40
2015,04,26,13,30,10.40
2015,04,26,13,31,10.40
2015,04,26,13,32,10.40
2015,04,26,13,33,10.40
2015,04,26,13,34,10.40
2015,04,26,13,35,10.40
2015,04,26,13,36,10.40
2015,04,26,13,37,10.40
2015,04,26,13,38,10.40
2015,04,26,13,39,10.40
2015,04,26,13,40,10.40
2015,04,26,13,41,10.40
2015,04,26,13,42,10.40
2015,04,26,13,43,10.40
2015,04,26,13,44,10.40
2015,04,26,13,45,10.40
2015,04,26,13,46,10.60
2015,04,26,13,47,10.60
2015,04,26,13,48,10.60
2015,04,26,13,49,10.60
2015,04,26,13,50,10.60
2015,04,26,13,51,10.60
2015,04,26,13,52,10.60
2015,04,26,13,53,10.60
2015,04,26,13,54,10.60
2015,04,26,13,55,10.60
2015,04,26,13,56,10.60
2015,04,26,13,57,10.60
2015,04,26,13,58,10.60
2015,04,26,13,59,10.60
2015,04,26,14,00,10.60
2015,04,26,14,01,10.60
2015,04,26,14,02,10.60
2015,04,26,14,03,10.60
2015,04,26,14,04,10.60
2015,04,26,14,05,10.60
2015,04,26,14,06,10.60
2015,04,26,14,07,10.60
2015,04,26,14,08,10.60
2015,04,26,14,09,10.60
2015,04,26,14,10,10.60
2015,04,26,14,11,10.60
2015,04,26,14,12,10.60
2015,04,26,14,13,10.60
2015,04,26,14,14,10.60
2015,04,26,14,15,10.60
2015,04,26,14,16,10.40
2015,04,26,14,17,10.40
2015,04,26,14,18,10.40
2015,04,26,14,19,10.40
2015,04,26,14,20,10.40
2015,04,26,14,21,10.40
2015,04,26,14,22,10.40
2015,04,26,14,23,10.40
2015,04,26,14,24,10.40
2015,04,26,14,25,10.40
2015,04,26,14,26,10.40
2015,04,26,14,27,10.40
2015,04,26,14,28,10.40
2015,04,26,14,29,10.40
2015,04,26,14,30,10.40
2015,04,26,14,31,10.40
2015,04,26,14,32,10.40
2015,04,26,14,33,10.40
2015,04,26,14,34,10.40
2015,04,26,14,35,10.40
2015,04,26,14,36,10.40
2015,04,26,14,37,10.40
2015,04,26,14,38,10.40
2015,04,26,14,39,10.40
2015,04,26,14,40,10.40
2015,04,26,14,41,10.40
2015,04,26,14,42,10.40
2015,04,26,14,43,10.40
2015,04,26,14,44,10.40
2015,04,26,14,45,10.40
2015,04,26,14,46,10.20
2015,04,26,14,47,10.20
2015,04,26,14,48,10.20
2015,04,26,14,49,10.20
2015,04,26,14,50,10.20
2015,04,26,14,51,10.20
2015,04,26,14,52,10.20
2015,04,26,14,53,10.20
2015,04,26,14,54,10.20
2015,04,26,14,55,10.20
2015,04,26,14,56,10.20
2015,04,26,14,57,10.20
2015,04,26,14,58,10.20
2015,04,26,14,59,10.20
2015,04,26,15,00,10.20
2015,04,26,15,01,10.20
2015,04,26,15,02,10.20
2015,04,26,15,03,10.20
2015,04,26,15,04,10.20
2015,04,26,15,05,10.20
2015,04,26,15,06,10.20
2015,04,26,15,07,10.20
2015,04,26,15,08,10.20
2015,04,26,15,09,10.20
2015,04,26,15,10,10.20
2015,04,26,15,11,10.20
2015,04,26,15,12,10.20
2015,04,26,15,13,10.20
2015,04,26,15,14,10.20
2015,04,26,15,15,10.20
2015,04,26,15,16,10.20
2015,04,26,15,17,10.20
2015,04,26,15,18,10.20
2015,04,26,15,19,10.20
2015,04,26,15,20,10.20
2015,04,26,15,21,10.20
2015,04,26,15,22,10.20
2015,04,26,15,23,10.20
2015,04,26,15,24,10.20
2015,04,26,15,25,10.20
2015,04,26,15,26,10.20
2015,04,26,15,27,10.20
2015,04,26,15,28,10.20
2015,04,26,15,29,10.20
2015,04,26,15,30,10.20
2015,04,26,15,31,10.20
2015,04,26,15,32,10.20
2015,04,26,15,33,10.20
2015,04,26,15,34,10.20
2015,04,26,15,35,10.20
2015,04,26,15,36,10.20
2015,04,26,15,37,10.20
2015,04,26,15,38,10.20
2015,04,26,15,39,10.20
2015,04,26,15,40,10.20
2015,04,26,15,41,10.20
2015,04,26,15,42,10.20
2015,04,26,15,43,10.20
2015,04,26,15,44,10.20
2015,04,26,15,45,10.20
2015,04,26,15,46,10.60
2015,04,26,15,47,10.60
2015,04,26,15,48,10.60
2015,04,26,15,49,10.60
2015,04,26,15,50,10.60
2015,04,26,15,51,10.60
2015,04,26,15,52,10.60
2015,04,26,15,53,10.60
2015,04,26,15,54,10.60
2015,04,26,15,55,10.60
2015,04,26,15,56,10.60
2015,04,26,15,57,10.60
2015,04,26,15,58,10.60
2015,04,26,15,59,10.60
2015,04,26,16,00,10.60
2015,04,26,16,01,10.60
2015,04,26,16,02,10.60
2015,04,26,16,03,10.60
2015,04,26,16,04,10.60
2015,04,26,16,05,10.60
2015,04,26,16,06,10.60
2015,04,26,16,07,10.60
2015,04,26,16,08,10.60
2015,04,26,16,09,10.60
2015,04,26,16,10,10.60
2015,04,26,16,11,10.60
2015,04,26,16,12,10.60
2015,04,26,16,13,10.60
2015,04,26,16,14,10.60
2015,04,26,16,15,10.60
2015,04,26,16,16,10.90
2015,04,26,16,17,10.90
2015,04,26,16,18,10.90
2015,04,26,16,19,10.90
2015,04,26,16,20,10.90
2015,04,26,16,21,10.90
2015,04,26,16,22,10.90
2015,04,26,16,23,10.90
2015,04,26,16,24,10.90
2015,04,26,16,25,10.90
2015,04,26,16,26,10.90
2015,04,26,16,27,10.90
2015,04,26,16,28,10.90
2015,04,26,16,29,10.90
2015,04,26,16,30,10.90
2015,04,26,16,31,10.90
2015,04,26,16,32,10.90
2015,04,26,16,33,10.90
2015,04,26,16,34,10.90
2015,04,26,16,35,10.90
2015,04,26,16,36,10.90
2015,04,26,16,37,10.90
2015,04,26,16,38,10.90
2015,04,26,16,39,10.90
2015,04,26,16,40,10.90
2015,04,26,16,41,10.90
2015,04,26,16,42,10.90
2015,04,26,16,43,10.90
2015,04,26,16,44,10.90
2015,04,26,16,45,10.90
2015,04,26,16,46,11.10
2015,04,26,16,47,11.10
2015,04,26,16,48,11.10
2015,04,26,16,49,11.10
2015,04,26,16,50,11.10
2015,04,26,16,51,11.10
2015,04,26,16,52,11.10
2015,04,26,16,53,11.10
2015,04,26,16,54,11.10
2015,04,26,16,55,11.10
2015,04,26,16,56,11.10
2015,04,26,16,57,11.10
2015,04,26,16,58,11.10
2015,04,26,16,59,11.10
2015,04,26,17,00,11.10
2015,04,26,17,01,11.10
2015,04,26,17,02,11.10
2015,04,26,17,03,11.10
2015,04,26,17,04,11.10
2015,04,26,17,05,11.10
2015,04,26,17,06,11.10
2015,04,26,17,07,11.10
2015,04,26,17,08,11.10
2015,04,26,17,09,11.10
2015,04,26,17,10,11.10
2015,04,26,17,11,11.10
2015,04,26,17,12,11.10
2015,04,26,17,13,11.10
2015,04,26,17,14,11.10
2015,04,26,17,15,11.10
2015,04,26,17,16,11.20
2015,04,26,17,17,11.20
2015,04,26,17,18,11.20
2015,04,26,17,19,11.20
2015,04,26,17,20,11.20
2015,04,26,17,21,11.20
2015,04,26,17,22,11.20
2015,04,26,17,23,11.20
2015,04,26,17,24,11.20
2015,04,26,17,25,11.20
2015,04,26,17,26,11.20
2015,04,26,17,27,11.20
2015,04,26,17,28,11.20
2015,04,26,17,29,11.20
2015,04,26,17,30,11.20
2015,04,26,17,31,11.20
2015,04,26,17,32,11.20
2015,04,26,17,33,11.20
2015,04,26,17,34,11.20
2015,04,26,17,35,11.20
2015,04,26,17,36,11.20
2015,04,26,17,37,11.20
2015,04,26,17,38,11.20
2015,04,26,17,39,11.20
2015,04,26,17,40,11.20
2015,04,26,17,41,11.20
2015,04,26,17,42,11.20
2015,04,26,17,43,11.20
2015,04,26,17,44,11.20
2015,04,26,17,45,11.20
2015,04,26,17,46,11.80
2015,04,26,17,47,11.80
2015,04,26,17,48,11.80
2015,04,26,17,49,11.80
2015,04,26,17,50,11.80
2015,04,26,17,51,11.80
2015,04,26,17,52,11.80
2015,04,26,17,53,11.80
2015,04,26,17,54,11.80
2015,04,26,17,55,11.80
2015,04,26,17,56,11.80
2015,04,26,17,57,11.80
2015,04,26,17,58,11.80
2015,04,26,17,59,11.80
2015,04,26,18,00,11.80
2015,04,26,18,01,11.80
2015,04,26,18,02,11.80
2015,04,26,18,03,11.80
2015,04,26,18,04,11.80
2015,04,26,18,05,11.80
2015,04,26,18,06,11.80
2015,04,26,18,07,11.80
2015,04,26,18,08,11.80
2015,04,26,18,09,11.80
2015,04,26,18,10,11.80
2015,04,26,18,11,11.80
2015,04,26,18,12,11.80
2015,04,26,18,13,11.80
2015,04,26,18,14,11.80
2015,04,26,18,15,11.80
2015,04,26,18,16,11.90
2015,04,26,18,17,11.90
2015,04,26,18,18,11.90
2015,04,26,18,19,11.90
2015,04,26,18,20,11.90
2015,04,26,18,21,11.90
2015,04,26,18,22,11.90
2015,04,26,18,23,11.90
2015,04,26,18,24,11.90
2015,04,26,18,25,11.90
2015,04,26,18,26,11.90
2015,04,26,18,27,11.90
2015,04,26,18,28,11.90
2015,04,26,18,29,11.90
2015,04,26,18,30,11.90
2015,04,26,18,31,11.90
2015,04,26,18,32,11.90
2015,04,26,18,33,11.90
2015,04,26,18,34,11.90
2015,04,26,18,35,11.90
2015,04,26,18,36,11.90
2015,04,26,18,37,11.90
2015,04,26,18,38,11.90
2015,04,26,18,39,11.90
2015,04,26,18,40,11.90
2015,04,26,18,41,11.90
2015,04,26,18,42,11.90
2015,04,26,18,43,11.90
2015,04,26,18,44,11.90
2015,04,26,18,45,11.90
2015,04,26,18,46,10.40
2015,04,26,18,47,10.40
2015,04,26,18,48,10.40
2015,04,26,18,49,10.40
2015,04,26,18,50,10.40
2015,04,26,18,51,10.40
2015,04,26,18,52,10.40
2015,04,26,18,53,10.40
2015,04,26,18,54,10.40
2015,04,26,18,55,10.40
2015,04,26,18,56,10.40
2015,04,26,18,57,10.40
2015,04,26,18,58,10.40
2015,04,26,18,59,10.40
2015,04,26,19,00,10.40
2015,04,26,19,01,10.40
2015,04,26,19,02,10.40
2015,04,26,19,03,10.40
2015,04,26,19,04,10.40
2015,04,26,19,05,10.40
2015,04,26,19,06,10.40
2015,04,26,19,07,10.40
2015,04,26,19,08,10.40
2015,04,26,19,09,10.40
2015,04,26,19,10,10.40
2015,04,26,19,11,10.40
2015,04,26,19,12,10.40
2015,04,26,19,13,10.40
2015,04,26,19,14,10.40
2015,04,26,19,15,10.40
2015,04,26,19,16,10.20
2015,04,26,19,17,10.20
2015,04,26,19,18,10.20
2015,04,26,19,19,10.20
2015,04,26,19,20,10.20
2015,04,26,19,21,10.20
2015,04,26,19,22,10.20
2015,04,26,19,23,10.20
2015,04,26,19,24,10.20
2015,04,26,19,25,10.20
2015,04,26,19,26,10.20
2015,04,26,19,27,10.20
2015,04,26,19,28,10.20
2015,04,26,19,29,10.20
2015,04,26,19,30,10.20
2015,04,26,19,31,10.20
2015,04,26,19,32,10.20
2015,04,26,19,33,10.20
2015,04,26,19,34,10.20
2015,04,26,19,35,10.20
2015,04,26,19,36,10.20
2015,04,26,19,37,10.20
2015,04,26,19,38,10.20
2015,04,26,19,39,10.20
2015,04,26,19,40,10.20
2015,04,26,19,41,10.20
2015,04,26,19,42,10.20
2015,04,26,19,43,10.20
2015,04,26,19,44,10.20
2015,04,26,19,45,10.20
2015,04,26,19,46,10.00
2015,04,26,19,47,10.00
2015,04,26,19,48,10.00
2015,04,26,19,49,10.00
2015,04,26,19,50,10.00
2015,04,26,19,51,10.00
2015,04,26,19,52,10.00
2015,04,26,19,53,10.00
2015,04,26,19,54,10.00
2015,04,26,19,55,10.00
2015,04,26,19,56,10.00
2015,04,26,19,57,10.00
2015,04,26,19,58,10.00
2015,04,26,19,59,10.00
2015,04,26,20,00,10.00
2015,04,26,20,01,10.00
2015,04,26,20,02,10.00
2015,04,26,20,03,10.00
2015,04,26,20,04,10.00
2015,04,26,20,05,10.00
2015,04,26,20,06,10.00
2015,04,26,20,07,10.00
2015,04,26,20,08,10.00
2015,04,26,20,09,10.00
2015,04,26,20,10,10.00
2015,04,26,20,11,10.00
2015,04,26,20,12,10.00
2015,04,26,20,13,10.00
2015,04,26,20,14,10.00
2015,04,26,20,15,10.00
2015,04,26,20,16,10.00
2015,04,26,20,17,10.00
2015,04,26,20,18,10.00
2015,04,26,20,19,10.00
2015,04,26,20,20,10.00
2015,04,26,20,21,10.00
2015,04,26,20,22,10.00
2015,04,26,20,23,10.00
2015,04,26,20,24,10.00
2015,04,26,20,25,10.00
2015,04,26,20,26,10.00
2015,04,26,20,27,10.00
2015,04,26,20,28,10.00
2015,04,26,20,29,10.00
2015,04,26,20,30,10.00
2015,04,26,20,31,10.00
2015,04,26,20,32,10.00
2015,04,26,20,33,10.00
2015,04,26,20,34,10.00
2015,04,26,20,35,10.00
2015,04,26,20,36,10.00
2015,04,26,20,37,10.00
2015,04,26,20,38,10.00
2015,04,26,20,39,10.00
2015,04,26,20,40,10.00
2015,04,26,20,41,10.00
2015,04,26,20,42,10.00
2015,04,26,20,43,10.00
2015,04,26,20,44,10.00
2015,04,26,20,45,10.00
2015,04,26,20,46,10.30
2015,04,26,20,47,10.30
2015,04,26,20,48,10.30
2015,04,26,20,49,10.30
2015,04,26,20,50,10.30
2015,04,26,20,51,10.30
2015,04,26,20,52,10.30
2015,04,26,20,53,10.30
2015,04,26,20,54,10.30
2015,04,26,20,55,10.30
2015,04,26,20,56,10.30
2015,04,26,20,57,10.30
2015,04,26,20,58,10.30
2015,04,26,20,59,10.30
2015,04,26,21,00,10.30
2015,04,26,21,01,10.30
2015,04,26,21,02,10.30
2015,04,26,21,03,10.30
2015,04,26,21,04,10.30
2015,04,26,21,05,10.30
2015,04,26,21,06,10.30
2015,04,26,21,07,10.30
2015,04,26,21,08,10.30
2015,04,26,21,09,10.30
2015,04,26,21,10,10.30
2015,04,26,21,11,10.30
2015,04,26,21,12,10.30
2015,04,26,21,13,10.30
2015,04,26,21,14,10.30
2015,04,26,21,15,10.30
2015,04,26,21,16,10.50
2015,04,26,21,17,10.50
2015,04,26,21,18,10.50
2015,04,26,21,19,10.50
2015,04,26,21,20,10.50
2015,04,26,21,21,10.50
2015,04,26,21,22,10.50
2015,04,26,21,23,10.50
2015,04,26,21,24,10.50
2015,04,26,21,25,10.50
2015,04,26,21,26,10.50
2015,04,26,21,27,10.50
2015,04,26,21,28,10.50
2015,04,26,21,29,10.50
2015,04,26,21,30,10.50
2015,04,26,21,31,10.50
2015,04,26,21,32,10.50
2015,04,26,21,33,10.50
2015,04,26,21,34,10.50
2015,04,26,21,35,10.50
2015,04,26,21,36,10.50
2015,04,26,21,37,10.50
2015,04,26,21,38,10.50
2015,04,26,21,39,10.50
2015,04,26,21,40,10.50
2015,04,26,21,41,10.50
2015,04,26,21,42,10.50
2015,04,26,21,43,10.50
2015,04,26,21,44,10.50
2015,04,26,21,45,10.50
2015,04,26,21,46,10.30
2015,04,26,21,47,10.30
2015,04,26,21,48,10.30
2015,04,26,21,49,10.30
2015,04,26,21,50,10.30
2015,04,26,21,51,10.30
2015,04,26,21,52,10.30
2015,04,26,21,53,10.30
2015,04,26,21,54,10.30
2015,04,26,21,55,10.30
2015,04,26,21,56,10.30
2015,04,26,21,57,10.30
2015,04,26,21,58,10.30
2015,04,26,21,59,10.30
2015,04,26,22,00,10.30
2015,04,26,22,01,10.30
2015,04,26,22,02,10.30
2015,04,26,22,03,10.30
2015,04,26,22,04,10.30
2015,04,26,22,05,10.30
2015,04,26,22,06,10.30
2015,04,26,22,07,10.30
2015,04,26,22,08,10.30
2015,04,26,22,09,10.30
2015,04,26,22,10,10.30
2015,04,26,22,11,10.30
2015,04,26,22,12,10.30
2015,04,26,22,13,10.30
2015,04,26,22,14,10.30
2015,04,26,22,15,10.30
2015,04,26,22,16,10.30
2015,04,26,22,17,10.30
2015,04,26,22,18,10.30
2015,04,26,22,19,10.30
2015,04,26,22,20,10.30
2015,04,26,22,21,10.30
2015,04,26,22,22,10.30
2015,04,26,22,23,10.30
2015,04,26,22,24,10.30
2015,04,26,22,25,10.30
2015,04,26,22,26,10.30
2015,04,26,22,27,10.30
2015,04,26,22,28,10.30
2015,04,26,22,29,10.30
2015,04,26,22,30,10.30
2015,04,26,22,31,10.30
2015,04,26,22,32,10.30
2015,04,26,22,33,10.30
2015,04,26,22,34,10.30
2015,04,26,22,35,10.30
2015,04,26,22,36,10.30
2015,04,26,22,37,10.30
2015,04,26,22,38,10.30
2015,04,26,22,39,10.30
2015,04,26,22,40,10.30
2015,04,26,22,41,10.30
2015,04,26,22,42,10.30
2015,04,26,22,43,10.30
2015,04,26,22,44,10.30
2015,04,26,22,45,10.30
2015,04,26,22,46,10.30
2015,04,26,22,47,10.30
2015,04,26,22,48,10.30
2015,04,26,22,49,10.30
2015,04,26,22,50,10.30
2015,04,26,22,51,10.30
2015,04,26,22,52,10.30
2015,04,26,22,53,10.30
2015,04,26,22,54,10.30
2015,04,26,22,55,10.30
2015,04,26,22,56,10.30
2015,04,26,22,57,10.30
2015,04,26,22,58,10.30
2015,04,26,22,59,10.30
2015,04,26,23,00,10.30
2015,04,26,23,01,10.30
2015,04,26,23,02,10.30
2015,04,26,23,03,10.30
2015,04,26,23,04,10.30
2015,04,26,23,05,10.30
2015,04,26,23,06,10.30
2015,04,26,23,07,10.30
2015,04,26,23,08,10.30
2015,04,26,23,09,10.30
2015,04,26,23,10,10.30
2015,04,26,23,11,10.30
2015,04,26,23,12,10.30
2015,04,26,23,13,10.30
2015,04,26,23,14,10.30
2015,04,26,23,15,10.30
2015,04,26,23,16,10.40
2015,04,26,23,17,10.40
2015,04,26,23,18,10.40
2015,04,26,23,19,10.40
2015,04,26,23,20,10.40
2015,04,26,23,21,10.40
2015,04,26,23,22,10.40
2015,04,26,23,23,10.40
2015,04,26,23,24,10.40
2015,04,26,23,25,10.40
2015,04,26,23,26,10.40
2015,04,26,23,27,10.40
2015,04,26,23,28,10.40
2015,04,26,23,29,10.40
2015,04,26,23,30,10.40
2015,04,26,23,31,10.40
2015,04,26,23,32,10.40
2015,04,26,23,33,10.40
2015,04,26,23,34,10.40
2015,04,26,23,35,10.40
2015,04,26,23,36,10.40
2015,04,26,23,37,10.40
2015,04,26,23,38,10.40
2015,04,26,23,39,10.40
2015,04,26,23,40,10.40
2015,04,26,23,41,10.40
2015,04,26,23,42,10.40
2015,04,26,23,43,10.40
2015,04,26,23,44,10.40
2015,04,26,23,45,10.40
2015,04,26,23,46,10.30
2015,04,26,23,47,10.30
2015,04,26,23,48,10.30
2015,04,26,23,49,10.30
2015,04,26,23,50,10.30
2015,04,26,23,51,10.30
2015,04,26,23,52,10.30
2015,04,26,23,53,10.30
2015,04,26,23,54,10.30
2015,04,26,23,55,10.30
2015,04,26,23,56,10.30
2015,04,26,23,57,10.30
2015,04,26,23,58,10.30
2015,04,26,23,59,10.30
